,,,PA_Meas_PMT16A,,PR_Meas_QMR101_102,,RH_Meas_QMH101,,SR_Meas_QMS101,,TA_Meas_QMH101,,GenWind,,GenWind,
date,time,status,PA,status,PR,status,RH,status,SR,status,TA,status,DirAvg,status,SpdAvg,
2010-09-23, 00:00:04,VALID,1001.88,VALID,0,VALID,73.4966,VALID,19.6098,VALID,28.2614,VALID,67,VALID,0.510156,
2010-09-23, 00:01:04,VALID,1001.92,VALID,0,VALID,73.9391,VALID,17.9002,VALID,28.283,VALID,47,VALID,1.28867,
2010-09-23, 00:02:04,VALID,1001.94,VALID,0,VALID,73.3288,VALID,16.5929,VALID,28.2029,VALID,1,VALID,2.83516,
2010-09-23, 00:03:04,VALID,1001.98,VALID,0,VALID,73.6797,VALID,15.8889,VALID,28.2224,VALID,83,VALID,1.43086,
2010-09-23, 00:04:04,VALID,1001.98,VALID,0,VALID,74.0688,VALID,15.4867,VALID,28.2245,VALID,90,VALID,0.722656,
2010-09-23, 00:05:04,VALID,1002,VALID,0,VALID,74.2366,VALID,14.6822,VALID,28.166,VALID,35,VALID,0.673828,
2010-09-23, 00:06:04,VALID,1002,VALID,0,VALID,74.0535,VALID,13.576,VALID,28.1466,VALID,10,VALID,0.985547,
2010-09-23, 00:07:04,VALID,1002.01,VALID,0,VALID,74.0001,VALID,13.2743,VALID,28.1271,VALID,69,VALID,1.35898,
2010-09-23, 00:08:04,VALID,1002.04,VALID,0,VALID,74.5113,VALID,13.4754,VALID,28.0859,VALID,39,VALID,0.972656,
2010-09-23, 00:09:04,VALID,1002.02,VALID,0,VALID,74.8775,VALID,12.4698,VALID,28.0254,VALID,49,VALID,0.965234,
2010-09-23, 00:10:04,VALID,1002.04,VALID,0,VALID,74.9003,VALID,10.5591,VALID,28.008,VALID,21,VALID,1.04375,
2010-09-23, 00:11:04,VALID,1002.01,VALID,0,VALID,75.1292,VALID,8.74898,VALID,27.9885,VALID,28,VALID,0.752734,
2010-09-23, 00:12:04,VALID,1002,VALID,0,VALID,75.709,VALID,7.54222,VALID,27.9495,VALID,29,VALID,1.33477,
2010-09-23, 00:13:04,VALID,1002.03,VALID,0,VALID,75.7777,VALID,6.2349,VALID,27.8911,VALID,12,VALID,0.507813,
2010-09-23, 00:14:04,VALID,1002,VALID,0,VALID,75.6022,VALID,5.12871,VALID,27.8521,VALID,49,VALID,1.35898,
2010-09-23, 00:15:04,VALID,1001.98,VALID,0,VALID,75.8616,VALID,4.42477,VALID,27.8326,VALID,80,VALID,1.02109,
2010-09-23, 00:16:04,VALID,1002.01,VALID,0,VALID,76.4948,VALID,3.92195,VALID,27.8131,VALID,12,VALID,0.862109,
2010-09-23, 00:17:04,VALID,1002.06,VALID,0,VALID,76.716,VALID,3.62027,VALID,27.7546,VALID,38,VALID,0.440234,
2010-09-23, 00:18:04,VALID,1002.05,VALID,0,VALID,76.6779,VALID,3.31858,VALID,27.7351,VALID,92,VALID,0.992188,
2010-09-23, 00:19:04,VALID,1002.09,VALID,0,VALID,77.3797,VALID,3.01689,VALID,27.7157,VALID,28,VALID,0.855859,
2010-09-23, 00:20:04,VALID,1002.1,VALID,0,VALID,77.3492,VALID,2.41351,VALID,27.6377,VALID,87,VALID,0.682813,
2010-09-23, 00:21:04,VALID,1002.12,VALID,0,VALID,77.4713,VALID,1.81013,VALID,27.6182,VALID,28,VALID,0.967188,
2010-09-23, 00:22:04,VALID,1002.12,VALID,0,VALID,77.4789,VALID,1.40788,VALID,27.5792,VALID,83,VALID,0.588672,
2010-09-23, 00:23:04,VALID,1002.15,VALID,0,VALID,77.7383,VALID,1.10619,VALID,27.5598,VALID,30,VALID,0.75,
2010-09-23, 00:24:04,VALID,1002.18,VALID,0,VALID,77.9672,VALID,0.905066,VALID,27.5403,VALID,31,VALID,1.11367,
2010-09-23, 00:25:04,VALID,1002.19,VALID,0,VALID,77.807,VALID,0.804504,VALID,27.5013,VALID,11,VALID,1.04414,
2010-09-23, 00:26:04,VALID,1002.22,VALID,0,VALID,77.8146,VALID,0.603378,VALID,27.5208,VALID,70,VALID,1.15703,
2010-09-23, 00:27:04,VALID,1002.21,VALID,0,VALID,77.8375,VALID,0.502815,VALID,27.4992,VALID,360,VALID,1.5332,
2010-09-23, 00:28:04,VALID,1002.23,VALID,0,VALID,77.7154,VALID,0.402252,VALID,27.4992,VALID,17,VALID,1.86602,
2010-09-23, 00:29:04,VALID,1002.29,VALID,0,VALID,78.2647,VALID,0.301689,VALID,27.4797,VALID,39,VALID,0.824609,
2010-09-23, 00:30:04,VALID,1002.27,VALID,0,VALID,77.9672,VALID,0.201126,VALID,27.4992,VALID,44,VALID,0.530859,
2010-09-23, 00:31:04,VALID,1002.29,VALID,0,VALID,78.0511,VALID,0.201126,VALID,27.4992,VALID,10,VALID,1.37891,
2010-09-23, 00:32:04,VALID,1002.35,VALID,0,VALID,78.4478,VALID,0.201126,VALID,27.4602,VALID,50,VALID,0.803906,
2010-09-23, 00:33:04,VALID,1002.36,VALID,0,VALID,78.3944,VALID,0,VALID,27.4039,VALID,11,VALID,1.63828,
2010-09-23, 00:34:04,VALID,1002.35,VALID,0,VALID,78.4249,VALID,0,VALID,27.4059,VALID,17,VALID,1.9293,
2010-09-23, 00:35:04,VALID,1002.37,VALID,0,VALID,78.6232,VALID,0,VALID,27.3844,VALID,25,VALID,1.17461,
2010-09-23, 00:36:04,VALID,1002.38,VALID,0,VALID,79.1878,VALID,0,VALID,27.3649,VALID,24,VALID,0.767969,
2010-09-23, 00:37:04,VALID,1002.42,VALID,0,VALID,79.1954,VALID,0.100563,VALID,27.3454,VALID,16,VALID,0.892187,
2010-09-23, 00:38:04,VALID,1002.45,VALID,0,VALID,79.0352,VALID,0,VALID,27.3259,VALID,5,VALID,1.64883,
2010-09-23, 00:39:04,VALID,1002.44,VALID,0,VALID,78.7606,VALID,0,VALID,27.3259,VALID,2,VALID,1.24297,
2010-09-23, 00:40:04,VALID,1002.45,VALID,0,VALID,79.0962,VALID,0,VALID,27.3649,VALID,63,VALID,0.403516,
2010-09-23, 00:41:04,VALID,1002.44,VALID,0,VALID,78.9894,VALID,0,VALID,27.3454,VALID,24,VALID,1.14336,
2010-09-23, 00:42:04,VALID,1002.44,VALID,0,VALID,79.4243,VALID,0,VALID,27.3064,VALID,38,VALID,0.660547,
2010-09-23, 00:43:04,VALID,1002.47,VALID,0,VALID,79.3251,VALID,0,VALID,27.3064,VALID,10,VALID,0.678906,
2010-09-23, 00:44:04,VALID,1002.51,VALID,0,VALID,79.4472,VALID,0,VALID,27.3064,VALID,36,VALID,0.763281,
2010-09-23, 00:45:04,VALID,1002.49,VALID,0,VALID,79.5463,VALID,0,VALID,27.3064,VALID,34,VALID,0.517578,
2010-09-23, 00:46:04,VALID,1002.5,VALID,0,VALID,79.5082,VALID,0,VALID,27.2654,VALID,26,VALID,1.03984,
2010-09-23, 00:47:04,VALID,1002.51,VALID,0,VALID,79.5769,VALID,0,VALID,27.248,VALID,5,VALID,0.979297,
2010-09-23, 00:48:04,VALID,1002.53,VALID,0,VALID,79.6531,VALID,0,VALID,27.2675,VALID,26,VALID,0.894922,
2010-09-23, 00:49:04,VALID,1002.55,VALID,0,VALID,79.9278,VALID,0,VALID,27.2675,VALID,32,VALID,0.73125,
2010-09-23, 00:50:04,VALID,1002.54,VALID,0,VALID,80.2253,VALID,0,VALID,27.248,VALID,24,VALID,0.709766,
2010-09-23, 00:51:04,VALID,1002.51,VALID,0,VALID,80.027,VALID,0,VALID,27.209,VALID,35,VALID,0.856641,
2010-09-23, 00:52:04,VALID,1002.55,VALID,0,VALID,80.2177,VALID,0,VALID,27.1875,VALID,31,VALID,0.505078,
2010-09-23, 00:53:04,VALID,1002.57,VALID,0,VALID,79.9736,VALID,0.100563,VALID,27.209,VALID,41,VALID,1.27539,
2010-09-23, 00:54:04,VALID,1002.58,VALID,0,VALID,80.3626,VALID,0,VALID,27.1875,VALID,29,VALID,0.9625,
2010-09-23, 00:55:04,VALID,1002.61,VALID,0,VALID,80.7059,VALID,0,VALID,27.1895,VALID,26,VALID,0.198828,
2010-09-23, 00:56:04,VALID,1002.64,VALID,0,VALID,80.7212,VALID,0,VALID,27.1506,VALID,26,VALID,0.633203,
2010-09-23, 00:57:04,VALID,1002.7,VALID,0,VALID,80.6602,VALID,0,VALID,27.129,VALID,41,VALID,0.751562,
2010-09-23, 00:58:04,VALID,1002.74,VALID,0,VALID,80.6525,VALID,0,VALID,27.1095,VALID,38,VALID,0.250781,
2010-09-23, 00:59:04,VALID,1002.77,VALID,0,VALID,80.8585,VALID,0,VALID,27.09,VALID,38,VALID,0.0238281,
2010-09-23, 01:00:04,VALID,1002.82,VALID,0,VALID,80.7746,VALID,0,VALID,27.0726,VALID,90,VALID,1.09063,
2010-09-23, 01:01:04,VALID,1002.85,VALID,0,VALID,80.8509,VALID,0,VALID,27.09,VALID,67,VALID,0.582031,
2010-09-23, 01:02:04,VALID,1002.83,VALID,0,VALID,80.683,VALID,0,VALID,27.1095,VALID,348,VALID,0.523828,
2010-09-23, 01:03:04,VALID,1002.82,VALID,0,VALID,80.9501,VALID,0,VALID,27.1095,VALID,52,VALID,0.825391,
2010-09-23, 01:04:04,VALID,1002.82,VALID,0,VALID,81.1026,VALID,0,VALID,27.09,VALID,48,VALID,0.999219,
2010-09-23, 01:05:04,VALID,1002.82,VALID,0,VALID,80.9806,VALID,0,VALID,27.1095,VALID,16,VALID,0.701172,
2010-09-23, 01:06:04,VALID,1002.83,VALID,0,VALID,81.3086,VALID,0,VALID,27.09,VALID,11,VALID,0.730078,
2010-09-23, 01:07:04,VALID,1002.83,VALID,0,VALID,80.8432,VALID,0.100563,VALID,27.0921,VALID,17,VALID,0.364453,
2010-09-23, 01:08:04,VALID,1002.86,VALID,0,VALID,81.1179,VALID,0,VALID,27.0921,VALID,58,VALID,0.382422,
2010-09-23, 01:09:04,VALID,1002.91,VALID,0,VALID,80.9195,VALID,0,VALID,27.1116,VALID,31,VALID,0.644531,
2010-09-23, 01:10:04,VALID,1002.94,VALID,0,VALID,81.095,VALID,0,VALID,27.0921,VALID,13,VALID,0.566406,
2010-09-23, 01:11:04,VALID,1002.95,VALID,0,VALID,81.2628,VALID,0.100563,VALID,27.0706,VALID,12,VALID,0.314453,
2010-09-23, 01:12:04,VALID,1002.98,VALID,0,VALID,81.156,VALID,0,VALID,27.0511,VALID,64,VALID,0.578906,
2010-09-23, 01:13:04,VALID,1002.96,VALID,0,VALID,81.1865,VALID,0,VALID,27.0316,VALID,79,VALID,0.761719,
2010-09-23, 01:14:04,VALID,1002.98,VALID,0,VALID,81.2018,VALID,0,VALID,27.0336,VALID,64,VALID,1.07578,
2010-09-23, 01:15:04,VALID,1003.02,VALID,0,VALID,81.6214,VALID,0.100563,VALID,27.0121,VALID,31,VALID,0.450781,
2010-09-23, 01:16:04,VALID,1003.06,VALID,0,VALID,81.629,VALID,0,VALID,26.9711,VALID,33,VALID,0.666406,
2010-09-23, 01:17:04,VALID,1003.07,VALID,0,VALID,81.7282,VALID,0,VALID,26.9516,VALID,42,VALID,0.384766,
2010-09-23, 01:18:04,VALID,1003.11,VALID,0,VALID,81.7816,VALID,0,VALID,26.9537,VALID,105,VALID,0.821484,
2010-09-23, 01:19:04,VALID,1003.11,VALID,0,VALID,81.9037,VALID,0,VALID,26.9321,VALID,89,VALID,0.927734,
2010-09-23, 01:20:04,VALID,1003.14,VALID,0,VALID,81.9189,VALID,0.100563,VALID,26.9537,VALID,4,VALID,0.621484,
2010-09-23, 01:21:04,VALID,1003.21,VALID,0,VALID,82.2241,VALID,0.100563,VALID,26.9342,VALID,127,VALID,0.355469,
2010-09-23, 01:22:04,VALID,1003.21,VALID,0,VALID,82.2088,VALID,0,VALID,26.9557,VALID,84,VALID,0.523828,
2010-09-23, 01:23:04,VALID,1003.23,VALID,0,VALID,82.3004,VALID,0.100563,VALID,26.8932,VALID,92,VALID,0.374609,
2010-09-23, 01:24:04,VALID,1003.24,VALID,0,VALID,82.3309,VALID,0,VALID,26.8778,VALID,77,VALID,0.515234,
2010-09-23, 01:25:04,VALID,1003.28,VALID,0,VALID,82.5445,VALID,0,VALID,26.8368,VALID,70,VALID,0.399609,
2010-09-23, 01:26:04,VALID,1003.27,VALID,0,VALID,82.6131,VALID,0,VALID,26.8388,VALID,56,VALID,0.283984,
2010-09-23, 01:27:04,VALID,1003.26,VALID,0,VALID,82.6742,VALID,0,VALID,26.8193,VALID,71,VALID,0.658984,
2010-09-23, 01:28:04,VALID,1003.29,VALID,0,VALID,82.8344,VALID,0,VALID,26.8193,VALID,86,VALID,0.769531,
2010-09-23, 01:29:04,VALID,1003.26,VALID,0,VALID,82.6742,VALID,0,VALID,26.8193,VALID,86,VALID,0.300781,
2010-09-23, 01:30:04,VALID,1003.28,VALID,0,VALID,82.8573,VALID,0,VALID,26.7998,VALID,86,VALID,0.128516,
2010-09-23, 01:31:04,VALID,1003.3,VALID,0,VALID,82.8573,VALID,0,VALID,26.7998,VALID,86,VALID,0.107031,
2010-09-23, 01:32:04,VALID,1003.32,VALID,0,VALID,83.2845,VALID,0,VALID,26.7804,VALID,86,VALID,0.152344,
2010-09-23, 01:33:04,VALID,1003.32,VALID,0,VALID,83.109,VALID,0,VALID,26.7609,VALID,86,VALID,0.25625,
2010-09-23, 01:34:04,VALID,1003.34,VALID,0,VALID,83.4905,VALID,0,VALID,26.7414,VALID,86,VALID,0.0347656,
2010-09-23, 01:35:04,VALID,1003.36,VALID,0,VALID,83.3989,VALID,0,VALID,26.6809,VALID,87,VALID,0.428906,
2010-09-23, 01:36:04,VALID,1003.37,VALID,0,VALID,83.521,VALID,0,VALID,26.7024,VALID,87,VALID,0.00703125,
2010-09-23, 01:37:04,VALID,1003.38,VALID,0,VALID,83.8109,VALID,0,VALID,26.6614,VALID,87,VALID,0.175781,
2010-09-23, 01:38:04,VALID,1003.36,VALID,0,VALID,83.9329,VALID,0,VALID,26.6635,VALID,77,VALID,0.148828,
2010-09-23, 01:39:04,VALID,1003.37,VALID,0,VALID,83.9558,VALID,0,VALID,26.6245,VALID,77,VALID,0.171094,
2010-09-23, 01:40:04,VALID,1003.35,VALID,0,VALID,84.1618,VALID,0,VALID,26.605,VALID,78,VALID,0.16875,
2010-09-23, 01:41:04,VALID,1003.36,VALID,0,VALID,84.0474,VALID,0,VALID,26.605,VALID,34,VALID,0.580078,
2010-09-23, 01:42:04,VALID,1003.38,VALID,0,VALID,84.0931,VALID,0,VALID,26.5855,VALID,15,VALID,0.155078,
2010-09-23, 01:43:04,VALID,1003.45,VALID,0,VALID,84.2839,VALID,0,VALID,26.5661,VALID,11,VALID,0.253125,
2010-09-23, 01:44:04,VALID,1003.47,VALID,0,VALID,84.3296,VALID,0,VALID,26.5855,VALID,13,VALID,0.176172,
2010-09-23, 01:45:04,VALID,1003.47,VALID,0,VALID,84.4212,VALID,0,VALID,26.5466,VALID,52,VALID,0.345313,
2010-09-23, 01:46:04,VALID,1003.52,VALID,0,VALID,84.795,VALID,0,VALID,26.5271,VALID,52,VALID,0.214844,
2010-09-23, 01:47:04,VALID,1003.5,VALID,0,VALID,84.9857,VALID,0,VALID,26.4881,VALID,52,VALID,0,
2010-09-23, 01:48:04,VALID,1003.53,VALID,0,VALID,85.3977,VALID,0,VALID,26.4277,VALID,52,VALID,0,
2010-09-23, 01:49:04,VALID,1003.53,VALID,0,VALID,85.4663,VALID,0,VALID,26.3713,VALID,52,VALID,0,
2010-09-23, 01:50:04,VALID,1003.56,VALID,0,VALID,85.8478,VALID,0,VALID,26.3323,VALID,52,VALID,0,
2010-09-23, 01:51:04,VALID,1003.55,VALID,0,VALID,86.069,VALID,0,VALID,26.2933,VALID,52,VALID,0,
2010-09-23, 01:52:04,VALID,1003.53,VALID,0,VALID,86.0309,VALID,0,VALID,26.2329,VALID,52,VALID,0,
2010-09-23, 01:53:04,VALID,1003.56,VALID,0,VALID,86.2445,VALID,0,VALID,26.2349,VALID,52,VALID,0,
2010-09-23, 01:54:04,VALID,1003.56,VALID,0,VALID,86.275,VALID,0,VALID,26.194,VALID,52,VALID,0,
2010-09-23, 01:55:04,VALID,1003.57,VALID,0,VALID,86.0614,VALID,0,VALID,26.2154,VALID,24,VALID,0,
2010-09-23, 01:56:04,VALID,1003.57,VALID,0,VALID,86.0843,VALID,0,VALID,26.2349,VALID,24,VALID,0,
2010-09-23, 01:57:04,VALID,1003.6,VALID,0,VALID,86.1682,VALID,0,VALID,26.2544,VALID,24,VALID,0,
2010-09-23, 01:58:04,VALID,1003.59,VALID,0,VALID,86.4657,VALID,0,VALID,26.194,VALID,20,VALID,0,
2010-09-23, 01:59:04,VALID,1003.57,VALID,0,VALID,86.7861,VALID,0,VALID,26.1375,VALID,18,VALID,0,
2010-09-23, 02:00:04,VALID,1003.6,VALID,0,VALID,86.9158,VALID,0,VALID,26.0771,VALID,16,VALID,0,
2010-09-23, 02:01:04,VALID,1003.56,VALID,0,VALID,87.0226,VALID,0,VALID,26.0596,VALID,4,VALID,0.578906,
2010-09-23, 02:02:04,VALID,1003.56,VALID,0,VALID,87.1447,VALID,0,VALID,26.0381,VALID,4,VALID,0.503125,
2010-09-23, 02:03:04,VALID,1003.54,VALID,0,VALID,87.0226,VALID,0,VALID,26.0401,VALID,345,VALID,0.548437,
2010-09-23, 02:04:04,VALID,1003.55,VALID,0,VALID,87.2515,VALID,0,VALID,26.0596,VALID,345,VALID,0.730078,
2010-09-23, 02:05:04,VALID,1003.57,VALID,0,VALID,87.6635,VALID,0,VALID,25.9992,VALID,345,VALID,0.396484,
2010-09-23, 02:06:04,VALID,1003.56,VALID,0,VALID,88.0831,VALID,0,VALID,25.9213,VALID,345,VALID,0.429688,
2010-09-23, 02:07:04,VALID,1003.6,VALID,0,VALID,88.3043,VALID,0,VALID,25.8629,VALID,8,VALID,1.07773,
2010-09-23, 02:08:04,VALID,1003.6,VALID,0,VALID,88.5789,VALID,0,VALID,25.8823,VALID,21,VALID,0.601953,
2010-09-23, 02:09:04,VALID,1003.6,VALID,0,VALID,88.6628,VALID,0,VALID,25.8843,VALID,16,VALID,0.5125,
2010-09-23, 02:10:04,VALID,1003.63,VALID,0,VALID,89.0061,VALID,0,VALID,25.8453,VALID,16,VALID,0.545703,
2010-09-23, 02:11:04,VALID,1003.61,VALID,0,VALID,89.1206,VALID,0,VALID,25.8044,VALID,13,VALID,0.602344,
2010-09-23, 02:12:04,VALID,1003.63,VALID,0,VALID,89.1511,VALID,0,VALID,25.8064,VALID,18,VALID,0.409766,
2010-09-23, 02:13:04,VALID,1003.62,VALID,0,VALID,89.4028,VALID,0,VALID,25.785,VALID,18,VALID,0.523438,
2010-09-23, 02:14:04,VALID,1003.62,VALID,0,VALID,89.708,VALID,0,VALID,25.7655,VALID,18,VALID,0.258203,
2010-09-23, 02:15:04,VALID,1003.64,VALID,0,VALID,90.0818,VALID,0,VALID,25.746,VALID,18,VALID,0.163281,
2010-09-23, 02:16:04,VALID,1003.64,VALID,0,VALID,90.4862,VALID,0,VALID,25.7285,VALID,18,VALID,0.000390625,
2010-09-23, 02:17:04,VALID,1003.68,VALID,0,VALID,92.1721,VALID,0,VALID,25.7285,VALID,18,VALID,0.385938,
2010-09-23, 02:18:04,VALID,1003.69,VALID,0,VALID,93.8123,VALID,0,VALID,25.6895,VALID,18,VALID,0.389844,
2010-09-23, 02:19:04,VALID,1003.7,VALID,0,VALID,100.289,VALID,0,VALID,25.6097,VALID,18,VALID,0.423047,
2010-09-23, 02:20:04,VALID,1003.68,VALID,0,VALID,104,VALID,0,VALID,25.5707,VALID,7,VALID,0.617188,
2010-09-23, 02:21:04,VALID,1003.71,VALID,0,INVALID,109.543,VALID,0,VALID,25.5532,VALID,6,VALID,0.597656,
2010-09-23, 02:22:04,VALID,1003.72,VALID,0,INVALID,114.86,VALID,0,VALID,25.5142,VALID,6,VALID,0.444922,
2010-09-23, 02:23:04,VALID,1003.76,VALID,0,INVALID,121.62,VALID,0,VALID,25.4928,VALID,6,VALID,0.320313,
2010-09-23, 02:24:04,VALID,1003.78,VALID,0,INVALID,127.212,VALID,0,VALID,25.4734,VALID,13,VALID,0.757422,
2010-09-23, 02:25:04,VALID,1003.74,VALID,0,INVALID,129.767,VALID,0,VALID,25.4539,VALID,17,VALID,0.261328,
2010-09-23, 02:26:04,VALID,1003.77,VALID,0,INVALID,131.423,VALID,0,VALID,25.4344,VALID,17,VALID,0.205859,
2010-09-23, 02:27:04,VALID,1003.77,VALID,0,INVALID,132.598,VALID,0,VALID,25.4149,VALID,17,VALID,0.182812,
2010-09-23, 02:28:04,VALID,1003.79,VALID,0,INVALID,133.208,VALID,0,VALID,25.3935,VALID,17,VALID,0.280078,
2010-09-23, 02:29:04,VALID,1003.81,VALID,0,INVALID,133.483,VALID,0,VALID,25.3741,VALID,17,VALID,0.286719,
2010-09-23, 02:30:04,VALID,1003.8,VALID,0,INVALID,133.696,VALID,0,VALID,25.376,VALID,17,VALID,0.102344,
2010-09-23, 02:31:04,VALID,1003.82,VALID,0,INVALID,134.001,VALID,0,VALID,25.3565,VALID,17,VALID,0.258203,
2010-09-23, 02:32:04,VALID,1003.8,VALID,0,INVALID,134.108,VALID,0,VALID,25.3565,VALID,17,VALID,0.335938,
2010-09-23, 02:33:04,VALID,1003.81,VALID,0,INVALID,134.306,VALID,0,VALID,25.3974,VALID,16,VALID,0.463281,
2010-09-23, 02:34:04,VALID,1003.8,VALID,0,INVALID,134.375,VALID,0,VALID,25.3955,VALID,16,VALID,0.135937,
2010-09-23, 02:35:04,VALID,1003.77,VALID,0,INVALID,134.306,VALID,0,VALID,25.4149,VALID,16,VALID,0.233203,
2010-09-23, 02:36:04,VALID,1003.8,VALID,0,INVALID,134.276,VALID,0,VALID,25.3955,VALID,16,VALID,0.185547,
2010-09-23, 02:37:04,VALID,1003.78,VALID,0,INVALID,134.337,VALID,0,VALID,25.3741,VALID,16,VALID,0.428125,
2010-09-23, 02:38:04,VALID,1003.74,VALID,0,INVALID,134.39,VALID,0,VALID,25.376,VALID,16,VALID,0.144922,
2010-09-23, 02:39:04,VALID,1003.77,VALID,0,INVALID,134.619,VALID,0,VALID,25.3546,VALID,16,VALID,0.475,
2010-09-23, 02:40:04,VALID,1003.74,VALID,0,INVALID,134.726,VALID,0,VALID,25.3565,VALID,2,VALID,0.696094,
2010-09-23, 02:41:04,VALID,1003.75,VALID,0,INVALID,134.428,VALID,0,VALID,25.3935,VALID,354,VALID,0.651172,
2010-09-23, 02:42:04,VALID,1003.77,VALID,0,INVALID,133.46,VALID,0,VALID,25.4558,VALID,12,VALID,0.624609,
2010-09-23, 02:43:04,VALID,1003.76,VALID,0,INVALID,133.246,VALID,0,VALID,25.4928,VALID,10,VALID,0.356641,
2010-09-23, 02:44:04,VALID,1003.77,VALID,0,INVALID,132.338,VALID,0.100563,VALID,25.4928,VALID,34,VALID,0.401172,
2010-09-23, 02:45:04,VALID,1003.79,VALID,0,INVALID,130.111,VALID,0.100563,VALID,25.5123,VALID,35,VALID,0.0445312,
2010-09-23, 02:46:04,VALID,1003.8,VALID,0,INVALID,128.859,VALID,0,VALID,25.5318,VALID,35,VALID,0.178516,
2010-09-23, 02:47:04,VALID,1003.77,VALID,0,INVALID,129.447,VALID,0,VALID,25.5532,VALID,35,VALID,0.392969,
2010-09-23, 02:48:04,VALID,1003.78,VALID,0,INVALID,128.837,VALID,0,VALID,25.5318,VALID,35,VALID,0.286719,
2010-09-23, 02:49:04,VALID,1003.79,VALID,0,INVALID,129.317,VALID,0,VALID,25.5337,VALID,35,VALID,0.325391,
2010-09-23, 02:50:04,VALID,1003.78,VALID,0,INVALID,130.103,VALID,0,VALID,25.4539,VALID,35,VALID,0.285547,
2010-09-23, 02:51:04,VALID,1003.81,VALID,0,INVALID,131.72,VALID,0,VALID,25.4344,VALID,35,VALID,0.476563,
2010-09-23, 02:52:04,VALID,1003.83,VALID,0,INVALID,132.994,VALID,0.100563,VALID,25.4149,VALID,15,VALID,0.533984,
2010-09-23, 02:53:04,VALID,1003.84,VALID,0,INVALID,133.689,VALID,0,VALID,25.4344,VALID,15,VALID,0.621094,
2010-09-23, 02:54:04,VALID,1003.87,VALID,0,INVALID,133.109,VALID,0,VALID,25.4325,VALID,14,VALID,0.441406,
2010-09-23, 02:55:04,VALID,1003.86,VALID,0,INVALID,133.315,VALID,0,VALID,25.4734,VALID,39,VALID,1.48789,
2010-09-23, 02:56:04,VALID,1003.87,VALID,0,INVALID,132.216,VALID,0.100563,VALID,25.5532,VALID,15,VALID,0.422266,
2010-09-23, 02:57:04,VALID,1003.9,VALID,0,INVALID,128.272,VALID,0,VALID,25.5513,VALID,10,VALID,0.605469,
2010-09-23, 02:58:04,VALID,1003.88,VALID,0,INVALID,122.161,VALID,0,VALID,25.5902,VALID,10,VALID,0.544141,
2010-09-23, 02:59:04,VALID,1003.9,VALID,0,INVALID,122.024,VALID,0,VALID,25.5707,VALID,9,VALID,0.626562,
2010-09-23, 03:00:04,VALID,1003.93,VALID,0,INVALID,122.81,VALID,0,VALID,25.5707,VALID,15,VALID,0.576953,
2010-09-23, 03:01:04,VALID,1003.94,VALID,0,INVALID,125.472,VALID,0.100563,VALID,25.5707,VALID,15,VALID,0.415234,
2010-09-23, 03:02:04,VALID,1003.93,VALID,0,INVALID,126.99,VALID,0,VALID,25.5123,VALID,15,VALID,0.735937,
2010-09-23, 03:03:04,VALID,1003.96,VALID,0,INVALID,130.553,VALID,0,VALID,25.4928,VALID,24,VALID,0.302344,
2010-09-23, 03:04:04,VALID,1003.94,VALID,0,INVALID,131.476,VALID,0,VALID,25.5142,VALID,20,VALID,0.404687,
2010-09-23, 03:05:04,VALID,1003.91,VALID,0,INVALID,131.835,VALID,0,VALID,25.5513,VALID,3,VALID,0.375,
2010-09-23, 03:06:04,VALID,1003.92,VALID,0,INVALID,130.408,VALID,0,VALID,25.5902,VALID,354,VALID,0.370703,
2010-09-23, 03:07:04,VALID,1003.91,VALID,0,INVALID,121.925,VALID,0,VALID,25.6681,VALID,360,VALID,0.292578,
2010-09-23, 03:08:04,VALID,1003.92,VALID,0,INVALID,111.122,VALID,0.100563,VALID,25.6856,VALID,360,VALID,0.00585938,
2010-09-23, 03:09:04,VALID,1003.92,VALID,0,VALID,104,VALID,0,VALID,25.6856,VALID,360,VALID,0.368359,
2010-09-23, 03:10:04,VALID,1003.95,VALID,0,VALID,104,VALID,0,VALID,25.7051,VALID,360,VALID,0.239063,
2010-09-23, 03:11:04,VALID,1003.94,VALID,0,VALID,103.982,VALID,0,VALID,25.746,VALID,2,VALID,0.637891,
2010-09-23, 03:12:04,VALID,1003.98,VALID,0,VALID,101.632,VALID,0,VALID,25.785,VALID,1,VALID,0.466016,
2010-09-23, 03:13:04,VALID,1004.03,VALID,0,VALID,99.595,VALID,0.100563,VALID,25.8239,VALID,39,VALID,0.216797,
2010-09-23, 03:14:04,VALID,1004.08,VALID,0,VALID,98.5041,VALID,0.100563,VALID,25.8239,VALID,39,VALID,0,
2010-09-23, 03:15:04,VALID,1004.09,VALID,0,VALID,97.3293,VALID,0.100563,VALID,25.8434,VALID,39,VALID,0,
2010-09-23, 03:16:04,VALID,1004.12,VALID,0,VALID,96.6655,VALID,0.100563,VALID,25.8434,VALID,39,VALID,0,
2010-09-23, 03:17:04,VALID,1004.14,VALID,0,VALID,96.3528,VALID,0,VALID,25.8629,VALID,39,VALID,0,
2010-09-23, 03:18:04,VALID,1004.15,VALID,0,VALID,95.0635,VALID,0,VALID,25.8823,VALID,39,VALID,0,
2010-09-23, 03:19:04,VALID,1004.17,VALID,0,VALID,94.2319,VALID,0,VALID,25.9018,VALID,39,VALID,0,
2010-09-23, 03:20:04,VALID,1004.14,VALID,0,VALID,93.3546,VALID,0,VALID,25.9602,VALID,80,VALID,0.441797,
2010-09-23, 03:21:04,VALID,1004.16,VALID,0,VALID,92.4315,VALID,0,VALID,26.0206,VALID,69,VALID,0.195703,
2010-09-23, 03:22:04,VALID,1004.18,VALID,0,VALID,91.5542,VALID,0,VALID,26.0187,VALID,39,VALID,0.395703,
2010-09-23, 03:23:04,VALID,1004.19,VALID,0,VALID,91.2643,VALID,0,VALID,26.0381,VALID,48,VALID,0.510547,
2010-09-23, 03:24:04,VALID,1004.18,VALID,0,VALID,90.593,VALID,0.100563,VALID,26.0771,VALID,24,VALID,0.592969,
2010-09-23, 03:25:04,VALID,1004.22,VALID,0,VALID,90.4327,VALID,0,VALID,26.0966,VALID,24,VALID,0.344922,
2010-09-23, 03:26:04,VALID,1004.25,VALID,0,VALID,90.1352,VALID,0,VALID,26.0771,VALID,34,VALID,0.359375,
2010-09-23, 03:27:04,VALID,1004.21,VALID,0,VALID,90.0971,VALID,0.100563,VALID,26.0362,VALID,85,VALID,0.105859,
2010-09-23, 03:28:04,VALID,1004.24,VALID,0,VALID,90.1581,VALID,0,VALID,26.0187,VALID,85,VALID,0.242188,
2010-09-23, 03:29:04,VALID,1004.29,VALID,0,VALID,90.5777,VALID,0.100563,VALID,25.9992,VALID,360,VALID,0.232812,
2010-09-23, 03:30:04,VALID,1004.31,VALID,0,VALID,90.5548,VALID,0,VALID,25.9992,VALID,360,VALID,0.385547,
2010-09-23, 03:31:04,VALID,1004.34,VALID,0,VALID,90.6464,VALID,0,VALID,25.9797,VALID,360,VALID,0.247656,
2010-09-23, 03:32:04,VALID,1004.37,VALID,0,VALID,90.6998,VALID,0.100563,VALID,25.9388,VALID,360,VALID,0.217969,
2010-09-23, 03:33:04,VALID,1004.4,VALID,0,VALID,90.8523,VALID,0.100563,VALID,25.9408,VALID,1,VALID,0.133594,
2010-09-23, 03:34:04,VALID,1004.41,VALID,0,VALID,90.9439,VALID,0.100563,VALID,25.8998,VALID,1,VALID,0.200781,
2010-09-23, 03:35:04,VALID,1004.44,VALID,0,VALID,91.2109,VALID,0,VALID,25.9232,VALID,1,VALID,0.191406,
2010-09-23, 03:36:04,VALID,1004.43,VALID,0,VALID,91.2643,VALID,0.100563,VALID,25.9018,VALID,1,VALID,0.108203,
2010-09-23, 03:37:04,VALID,1004.44,VALID,0,VALID,91.6534,VALID,0.100563,VALID,25.8804,VALID,66,VALID,0.400781,
2010-09-23, 03:38:04,VALID,1004.45,VALID,0,VALID,91.8136,VALID,0,VALID,25.9408,VALID,90,VALID,0.648438,
2010-09-23, 03:39:04,VALID,1004.48,VALID,0,VALID,91.5542,VALID,0.100563,VALID,25.9817,VALID,82,VALID,0.328906,
2010-09-23, 03:40:04,VALID,1004.48,VALID,0,VALID,91.2643,VALID,0.100563,VALID,26.0012,VALID,360,VALID,0.728906,
2010-09-23, 03:41:04,VALID,1004.49,VALID,0,VALID,91.127,VALID,0,VALID,25.9836,VALID,359,VALID,0.448828,
2010-09-23, 03:42:04,VALID,1004.51,VALID,0,VALID,91.3101,VALID,0,VALID,25.9427,VALID,75,VALID,0.434375,
2010-09-23, 03:43:04,VALID,1004.51,VALID,0,VALID,91.394,VALID,0,VALID,25.9232,VALID,63,VALID,0.343359,